Location: Korczew
(51.3586°N, 19.4491°E)
Time: 08:17:15
(UTC+00:00)

Cosmos 1470 - Pass Details

Date: 19 May 2025
Orbit: 455 x 466 km, 82.5° (Epoch: 16 June)

Event Time Altitude Azimuth Distance (km) Brightness Sun altitude
Rises 23:04:26 0° 336° (NNW) 2,517 7.2 -18.4°
Maximum altitude 23:09:29 18° 272° (W) 1,203 4.5 -18.3°
Enters shadow 23:10:02 18° 260° (W) 1,226 4.4 -18.3°
